| time (UTC) | temp C | wind direction | speed KPH | gust KPH | rain 1hr cm | rain 24hr cm | rain mn cm | humidity % | barometer mb |
| 20260505083712 | 24 | 113 | 1.6 | 4.8 | 0.00 | 0.00 | 0.00 | 30 | 1012.2 |
| 20260505083212 | 23 | 113 | 3.2 | 12.9 | 0.00 | 0.00 | 0.00 | 30 | 1012.2 |
| 20260505082712 | 23 | 180 | 3.2 | 8.0 | 0.00 | 0.00 | 0.00 | 31 | 1012.2 |
| 20260505082212 | 23 | 180 | 3.2 | 8.0 | 0.00 | 0.00 | 0.00 | 31 | 1012.2 |
| 20260505081712 | 23 | 135 | 3.2 | 9.7 | 0.00 | 0.00 | 0.00 | 31 | 1012.2 |
| 20260505081213 | 23 | 45 | 1.6 | 6.4 | 0.00 | 0.03 | 0.00 | 32 | 1012.2 |
| 20260505080712 | 22 | 90 | 3.2 | 6.4 | 0.00 | 0.03 | 0.00 | 32 | 1012.4 |
| 20260505080212 | 23 | 45 | 1.6 | 8.0 | 0.00 | 0.00 | 0.00 | 31 | 1012.3 |
| 20260505075713 | 23 | 180 | 1.6 | 3.2 | 0.00 | 0.03 | 0.00 | 32 | 1012.3 |
| 20260505075212 | 22 | 90 | 1.6 | 6.4 | 0.00 | 0.03 | 0.00 | 33 | 1012.4 |
| 20260505074712 | 22 | 135 | 3.2 | 6.4 | 0.00 | 0.03 | 0.00 | 34 | 1012.2 |
| 20260505074212 | 22 | 90 | 3.2 | 6.4 | 0.00 | 0.03 | 0.00 | 37 | 1012.4 |
| 20260505073712 | 22 | 90 | 3.2 | 6.4 | 0.00 | 0.03 | 0.00 | 33 | 1012.4 |
| 20260505073212 | 22 | 135 | 1.6 | 6.4 | 0.00 | 0.03 | 0.00 | 33 | 1012.5 |
| 20260505072712 | 22 | 135 | 3.2 | 8.0 | 0.00 | 0.03 | 0.00 | 32 | 1012.5 |
| 20260505072212 | 23 | 180 | 3.2 | 6.4 | 0.00 | 0.03 | 0.00 | 32 | 1012.5 |
| 20260505071712 | 22 | 90 | 1.6 | 3.2 | 0.00 | 0.03 | 0.00 | 34 | 1012.5 |
| 20260505071212 | 22 | 180 | 1.6 | 3.2 | 0.00 | 0.03 | 0.00 | 40 | 1012.5 |
| 20260505070712 | 21 | 135 | 1.6 | 4.8 | 0.00 | 0.03 | 0.00 | 38 | 1012.6 |
| 20260505070212 | 21 | 45 | 1.6 | 4.8 | 0.00 | 0.00 | 0.00 | 40 | 1012.7 |
| 20260505065712 | 21 | 90 | 1.6 | 4.8 | 0.00 | 0.03 | 0.00 | 40 | 1012.7 |
| 20260505065212 | 21 | 135 | 1.6 | 6.4 | 0.00 | 0.03 | 0.00 | 40 | 1012.8 |
| 20260505064712 | 20 | 135 | 1.6 | 4.8 | 0.00 | 0.03 | 0.00 | 42 | 1012.9 |
| 20260505064212 | 20 | 135 | 1.6 | 3.2 | 0.00 | 0.03 | 0.00 | 43 | 1012.7 |
| 20260505063712 | 20 | 90 | 1.6 | 4.8 | 0.00 | 0.03 | 0.00 | 41 | 1012.8 |
| 20260505063211 | 20 | 135 | 1.6 | 6.4 | 0.00 | 0.03 | 0.00 | 42 | 1012.8 |
| 20260505062712 | 20 | 180 | 1.6 | 4.8 | 0.00 | 0.03 | 0.00 | 41 | 1012.8 |
| 20260505062212 | 21 | 45 | 1.6 | 6.4 | 0.00 | 0.03 | 0.00 | 41 | 1012.7 |
| 20260505061712 | 21 | 180 | 1.6 | 3.2 | 0.00 | 0.03 | 0.00 | 42 | 1012.5 |
| 20260505061212 | 20 | 180 | 0.0 | 1.6 | 0.00 | 0.03 | 0.00 | 46 | 1012.5 |
| 20260505060712 | 19 | 45 | 1.6 | 6.4 | 0.00 | 0.03 | 0.00 | 47 | 1012.6 |
| 20260505060211 | 19 | 45 | 0.0 | 0.0 | 0.00 | 0.00 | 0.00 | 47 | 1012.5 |
| 20260505055712 | 18 | 23 | 1.6 | 3.2 | 0.00 | 0.03 | 0.00 | 49 | 1012.6 |
| 20260505055212 | 18 | 45 | 0.0 | 3.2 | 0.00 | 0.03 | 0.00 | 50 | 1012.6 |
| 20260505054711 | 17 | 360 | 1.6 | 3.2 | 0.00 | 0.03 | 0.00 | 50 | 1012.6 |
| 20260505054211 | 17 | 45 | 1.6 | 3.2 | 0.00 | 0.03 | 0.00 | 52 | 1012.5 |
| 20260505053712 | 17 | 315 | 0.0 | 0.0 | 0.00 | 0.03 | 0.00 | 51 | 1012.6 |
| 20260505053211 | 17 | 360 | 0.0 | 0.0 | 0.00 | 0.03 | 0.00 | 58 | 1012.7 |
| 20260505052712 | 16 | 315 | 0.0 | 3.2 | 0.00 | 0.03 | 0.00 | 60 | 1012.6 |
| 20260505052212 | 15 | 225 | 0.0 | 0.0 | 0.00 | 0.03 | 0.00 | 61 | 1012.7 |
| 20260505051712 | 14 | 315 | 0.0 | 0.0 | 0.00 | 0.03 | 0.00 | 62 | 1012.7 |
| 20260505051212 | 15 | 180 | 0.0 | 1.6 | 0.00 | 0.03 | 0.00 | 60 | 1012.7 |
| 20260505050711 | 15 | 180 | 0.0 | 3.2 | 0.00 | 0.03 | 0.00 | 62 | 1012.7 |
| 20260505050212 | 14 | 225 | 0.0 | 0.0 | 0.00 | 0.00 | 0.00 | 65 | 1012.7 |
| 20260505041712 | 8 | 180 | 0.0 | 3.2 | 0.00 | 0.03 | 0.00 | 77 | 1012.6 |
| 20260505041211 | 8 | 180 | 0.0 | 3.2 | 0.00 | 0.03 | 0.00 | 77 | 1012.6 |
| 20260505040711 | 8 | 360 | 0.0 | 0.0 | 0.00 | 0.03 | 0.00 | 77 | 1012.5 |
| 20260505040211 | 8 | 360 | 0.0 | 3.2 | 0.00 | 0.00 | 0.00 | 77 | 1012.4 |
| 20260505035711 | 8 | 180 | 0.0 | 1.6 | 0.00 | 0.03 | 0.00 | 77 | 1012.2 |
| 20260505035212 | 8 | 360 | 0.0 | 1.6 | 0.00 | 0.03 | 0.00 | 77 | 1012.3 |
| 20260505034711 | 8 | 225 | 0.0 | 1.6 | 0.00 | 0.03 | 0.00 | 77 | 1012.3 |
| 20260505034211 | 7 | 225 | 0.0 | 3.2 | 0.00 | 0.03 | 0.00 | 76 | 1012.5 |
| 20260505033711 | 8 | 315 | 0.0 | 0.0 | 0.00 | 0.03 | 0.00 | 76 | 1012.5 |
| 20260505033212 | 8 | 315 | 0.0 | 3.2 | 0.00 | 0.03 | 0.00 | 75 | 1012.6 |
| 20260505032711 | 8 | 135 | 0.0 | 0.0 | 0.00 | 0.03 | 0.00 | 75 | 1012.5 |
| 20260505032211 | 8 | 135 | 0.0 | 0.0 | 0.00 | 0.03 | 0.00 | 75 | 1012.6 |
| 20260505031711 | 8 | 225 | 0.0 | 0.0 | 0.00 | 0.03 | 0.00 | 75 | 1012.6 |
| 20260505031212 | 8 | 225 | 1.6 | 4.8 | 0.00 | 0.03 | 0.00 | 75 | 1012.7 |
| 20260505030711 | 8 | 360 | 0.0 | 3.2 | 0.00 | 0.03 | 0.00 | 74 | 1012.8 |
| 20260505030212 | 8 | 225 | 0.0 | 0.0 | 0.00 | 0.00 | 0.00 | 74 | 1012.9 |
| 20260505025712 | 9 | 180 | 0.0 | 1.6 | 0.00 | 0.03 | 0.00 | 75 | 1012.9 |
| 20260505025057 | 9 | 180 | 1.6 | 3.2 | 0.00 | 0.03 | 0.00 | 74 | 1012.9 |
| 20260505024557 | 9 | 315 | 1.6 | 3.2 | 0.00 | 0.03 | 0.00 | 74 | 1012.9 |
| 20260505024057 | 9 | 315 | 1.6 | 3.2 | 0.00 | 0.03 | 0.00 | 74 | 1012.9 |
| 20260505023557 | 9 | 225 | 1.6 | 3.2 | 0.00 | 0.03 | 0.00 | 74 | 1013.0 |
| 20260505023058 | 9 | 360 | 0.0 | 1.6 | 0.00 | 0.03 | 0.00 | 74 | 1013.0 |
| 20260505022557 | 9 | 360 | 0.0 | 1.6 | 0.00 | 0.03 | 0.00 | 74 | 1013.0 |
| 20260505021557 | 9 | 360 | 0.0 | 1.6 | 0.00 | 0.03 | 0.00 | 73 | 1013.1 |
| 20260505021057 | 9 | 360 | 0.0 | 1.6 | 0.00 | 0.03 | 0.00 | 73 | 1013.1 |
| 20260505020558 | 9 | 360 | 1.6 | 3.2 | 0.00 | 0.03 | 0.00 | 73 | 1013.1 |
| 20260505020057 | 9 | 180 | 0.0 | 3.2 | 0.00 | 0.00 | 0.00 | 73 | 1013.2 |
| 20260505015557 | 9 | 225 | 0.0 | 0.0 | 0.00 | 0.03 | 0.00 | 73 | 1013.2 |
| 20260505015057 | 9 | 270 | 0.0 | 3.2 | 0.00 | 0.03 | 0.00 | 73 | 1013.2 |
| 20260505014557 | 9 | 270 | 0.0 | 0.0 | 0.00 | 0.03 | 0.00 | 72 | 1013.3 |
| 20260505014057 | 9 | 270 | 0.0 | 0.0 | 0.00 | 0.03 | 0.00 | 72 | 1013.3 |
| 20260505013558 | 10 | 360 | 0.0 | 1.6 | 0.00 | 0.03 | 0.00 | 72 | 1013.3 |
| 20260505013057 | 10 | 360 | 0.0 | 0.0 | 0.00 | 0.03 | 0.00 | 72 | 1013.3 |
| 20260505012557 | 10 | 180 | 1.6 | 3.2 | 0.00 | 0.03 | 0.00 | 72 | 1013.3 |
| 20260505012058 | 10 | 270 | 0.0 | 0.0 | 0.00 | 0.03 | 0.00 | 72 | 1013.4 |
| 20260505011557 | 10 | 270 | 0.0 | 0.0 | 0.00 | 0.03 | 0.00 | 72 | 1013.3 |
| 20260505011057 | 10 | 225 | 0.0 | 0.0 | 0.00 | 0.03 | 0.00 | 72 | 1013.4 |
| 20260505010557 | 10 | 225 | 0.0 | 0.0 | 0.00 | 0.03 | 0.00 | 72 | 1013.3 |
| 20260505010057 | 10 | 270 | 0.0 | 0.0 | 0.00 | 0.00 | 0.00 | 72 | 1013.4 |
| 20260505005557 | 10 | 270 | 0.0 | 3.2 | 0.00 | 0.00 | 0.00 | 72 | 1013.4 |
| 20260505005058 | 10 | 225 | 0.0 | 0.0 | 0.00 | 0.00 | 0.00 | 71 | 1013.4 |
| 20260505004557 | 10 | 225 | 0.0 | 3.2 | 0.00 | 0.00 | 0.00 | 71 | 1013.4 |
| 20260505004057 | 10 | 315 | 0.0 | 0.0 | 0.00 | 0.00 | 0.00 | 71 | 1013.4 |
| 20260505003557 | 10 | 180 | 0.0 | 1.6 | 0.00 | 0.00 | 0.00 | 71 | 1013.4 |
| 20260505003057 | 10 | 180 | 0.0 | 1.6 | 0.00 | 0.00 | 0.00 | 71 | 1013.4 |
| 20260505002557 | 10 | 180 | 0.0 | 0.0 | 0.00 | 0.00 | 0.00 | 71 | 1013.6 |
| 20260505002057 | 10 | 180 | 0.0 | 0.0 | 0.00 | 0.00 | 0.00 | 71 | 1013.6 |
| 20260505001557 | 10 | 270 | 1.6 | 3.2 | 0.00 | 0.00 | 0.00 | 71 | 1013.5 |
| 20260505001057 | 10 | 180 | 0.0 | 0.0 | 0.00 | 0.00 | 0.00 | 71 | 1013.6 |
| 20260505000557 | 10 | 225 | 0.0 | 3.2 | 0.00 | 0.00 | 0.00 | 71 | 1013.7 |
| 20260505000057 | 10 | 225 | 0.0 | 3.2 | 0.00 | 0.00 | 0.00 | 71 | 1013.7 |
| 20260504235557 | 10 | 270 | 0.0 | 0.0 | 0.00 | 0.00 | 0.00 | 72 | 1013.7 |
| 20260504235057 | 10 | 180 | 0.0 | 3.2 | 0.00 | 0.00 | 0.00 | 72 | 1013.8 |
| 20260504234557 | 10 | 315 | 0.0 | 3.2 | 0.00 | 0.00 | 0.00 | 71 | 1014.0 |
| 20260504234057 | 10 | 360 | 0.0 | 0.0 | 0.00 | 0.00 | 0.00 | 71 | 1013.8 |
| 20260504233557 | 10 | 180 | 0.0 | 0.0 | 0.00 | 0.00 | 0.00 | 70 | 1013.9 |
| 20260504233056 | 10 | 180 | 0.0 | 0.0 | 0.00 | 0.00 | 0.00 | 70 | 1013.9 |
| 20260504232557 | 10 | 180 | 0.0 | 3.2 | 0.00 | 0.00 | 0.00 | 70 | 1014.0 |
| 20260504232057 | 10 | 315 | 0.0 | 0.0 | 0.00 | 0.00 | 0.00 | 70 | 1014.1 |
| 20260504231557 | 10 | 180 | 0.0 | 0.0 | 0.00 | 0.00 | 0.00 | 70 | 1014.0 |
| 20260504231057 | 10 | 360 | 0.0 | 3.2 | 0.00 | 0.00 | 0.00 | 70 | 1014.0 |
| 20260504230557 | 10 | 180 | 0.0 | 3.2 | 0.00 | 0.00 | 0.00 | 70 | 1014.0 |
| 20260504230057 | 10 | 270 | 0.0 | 0.0 | 0.00 | 0.00 | 0.00 | 70 | 1014.2 |
| 20260504225557 | 10 | 270 | 0.0 | 0.0 | 0.00 | 0.00 | 0.00 | 69 | 1014.2 |
| 20260504225057 | 11 | 158 | 0.0 | 0.0 | 0.00 | 0.00 | 0.00 | 68 | 1014.1 |
| 20260504224557 | 11 | 45 | 0.0 | 0.0 | 0.00 | 0.00 | 0.00 | 68 | 1014.3 |
| 20260504224056 | 11 | 180 | 0.0 | 0.0 | 0.00 | 0.00 | 0.00 | 67 | 1014.3 |
| 20260504223557 | 11 | 180 | 0.0 | 0.0 | 0.00 | 0.00 | 0.00 | 67 | 1014.3 |
| 20260504223057 | 11 | 180 | 1.6 | 3.2 | 0.00 | 0.00 | 0.00 | 67 | 1014.3 |
| 20260504222557 | 11 | 225 | 1.6 | 3.2 | 0.00 | 0.00 | 0.00 | 67 | 1014.4 |
| 20260504222057 | 11 | 360 | 1.6 | 3.2 | 0.00 | 0.00 | 0.00 | 66 | 1014.5 |
| 20260504221556 | 12 | 45 | 0.0 | 3.2 | 0.00 | 0.00 | 0.00 | 67 | 1014.4 |
| 20260504221058 | 11 | 180 | 1.6 | 3.2 | 0.00 | 0.00 | 0.00 | 68 | 1014.4 |
| 20260504220558 | 11 | 135 | 0.0 | 3.2 | 0.00 | 0.00 | 0.00 | 69 | 1014.5 |
| 20260504220057 | 11 | 45 | 1.6 | 3.2 | 0.00 | 0.00 | 0.00 | 67 | 1014.6 |
| 20260504215557 | 11 | 45 | 1.6 | 3.2 | 0.00 | 0.03 | 0.00 | 67 | 1014.6 |
| 20260504215056 | 11 | 180 | 0.0 | 1.6 | 0.00 | 0.03 | 0.00 | 66 | 1014.5 |
| 20260504214557 | 12 | 315 | 0.0 | 0.0 | 0.00 | 0.03 | 0.00 | 64 | 1014.5 |
| 20260504214056 | 12 | 180 | 0.0 | 0.0 | 0.00 | 0.03 | 0.00 | 63 | 1014.5 |
| 20260504213557 | 12 | 180 | 0.0 | 0.0 | 0.00 | 0.03 | 0.00 | 63 | 1014.5 |
| 20260504213057 | 12 | 180 | 0.0 | 0.0 | 0.00 | 0.03 | 0.00 | 61 | 1014.6 |
| 20260504212557 | 12 | 180 | 0.0 | 3.2 | 0.00 | 0.03 | 0.00 | 61 | 1014.7 |
| 20260504212057 | 12 | 225 | 0.0 | 3.2 | 0.00 | 0.03 | 0.00 | 60 | 1014.7 |
| 20260504211557 | 12 | 225 | 0.0 | 3.2 | 0.00 | 0.03 | 0.00 | 60 | 1014.7 |
| 20260504211057 | 12 | 315 | 0.0 | 0.0 | 0.00 | 0.03 | 0.00 | 60 | 1014.7 |
| 20260504210557 | 12 | 225 | 0.0 | 3.2 | 0.00 | 0.03 | 0.00 | 60 | 1014.8 |
| 20260504210057 | 13 | 315 | 0.0 | 0.0 | 0.00 | 0.00 | 0.00 | 57 | 1014.5 |
| 20260504205450 | 13 | 180 | 0.0 | 0.0 | 0.00 | 0.03 | 0.00 | 55 | 1014.7 |
| 20260504204950 | 13 | 180 | 0.0 | 1.6 | 0.00 | 0.03 | 0.00 | 56 | 1014.5 |
| 20260504204451 | 13 | 360 | 0.0 | 3.2 | 0.00 | 0.03 | 0.00 | 55 | 1014.6 |
| 20260504203950 | 14 | 180 | 0.0 | 0.0 | 0.00 | 0.03 | 0.00 | 53 | 1014.5 |
| 20260504203451 | 14 | 225 | 0.0 | 0.0 | 0.00 | 0.03 | 0.00 | 53 | 1014.5 |
| 20260504202950 | 15 | 225 | 0.0 | 0.0 | 0.00 | 0.03 | 0.00 | 53 | 1014.6 |
| 20260504202451 | 15 | 135 | 0.0 | 0.0 | 0.00 | 0.03 | 0.00 | 51 | 1014.5 |
| 20260504201950 | 15 | 270 | 0.0 | 1.6 | 0.00 | 0.03 | 0.00 | 51 | 1014.5 |
| 20260504201450 | 15 | 315 | 0.0 | 0.0 | 0.00 | 0.03 | 0.00 | 51 | 1014.5 |
| 20260504200950 | 15 | 360 | 1.6 | 3.2 | 0.00 | 0.03 | 0.00 | 50 | 1014.6 |
| 20260504200450 | 16 | 270 | 0.0 | 0.0 | 0.00 | 0.03 | 0.00 | 49 | 1014.6 |
| 20260504195950 | 16 | 225 | 0.0 | 0.0 | 0.00 | 0.03 | 0.00 | 48 | 1014.6 |
| 20260504195450 | 17 | 225 | 0.0 | 3.2 | 0.00 | 0.03 | 0.00 | 47 | 1014.5 |
| 20260504194950 | 17 | 270 | 0.0 | 3.2 | 0.00 | 0.03 | 0.00 | 47 | 1014.3 |
| 20260504194451 | 17 | 225 | 1.6 | 3.2 | 0.00 | 0.03 | 0.00 | 42 | 1014.4 |
| 20260504193950 | 18 | 225 | 0.0 | 3.2 | 0.00 | 0.03 | 0.00 | 41 | 1014.4 |
| 20260504193450 | 18 | 225 | 0.0 | 1.6 | 0.00 | 0.03 | 0.00 | 41 | 1014.4 |
| 20260504192951 | 18 | 270 | 1.6 | 3.2 | 0.00 | 0.03 | 0.00 | 40 | 1014.4 |
| 20260504192450 | 19 | 225 | 1.6 | 3.2 | 0.00 | 0.03 | 0.00 | 40 | 1014.4 |
| 20260504191950 | 19 | 180 | 1.6 | 4.8 | 0.00 | 0.03 | 0.00 | 39 | 1014.3 |
| 20260504191450 | 20 | 270 | 1.6 | 6.4 | 0.00 | 0.03 | 0.00 | 39 | 1014.2 |
| 20260504190950 | 19 | 225 | 3.2 | 8.0 | 0.00 | 0.03 | 0.00 | 39 | 1014.2 |
| 20260504190450 | 20 | 225 | 1.6 | 4.8 | 0.00 | 0.03 | 0.00 | 39 | 1014.1 |
| 20260504185951 | 20 | 180 | 3.2 | 9.7 | 0.00 | 0.03 | 0.00 | 38 | 1014.1 |
| 20260504185450 | 20 | 180 | 0.0 | 1.6 | 0.00 | 0.03 | 0.00 | 38 | 1013.9 |
| 20260504184950 | 20 | 180 | 1.6 | 6.4 | 0.00 | 0.03 | 0.00 | 37 | 1013.9 |
| 20260504184450 | 20 | 135 | 1.6 | 3.2 | 0.00 | 0.03 | 0.00 | 37 | 1014.0 |
| 20260504183950 | 20 | 180 | 1.6 | 4.8 | 0.00 | 0.03 | 0.00 | 36 | 1013.8 |
| 20260504183451 | 20 | 225 | 3.2 | 6.4 | 0.00 | 0.03 | 0.00 | 35 | 1013.8 |
| 20260504182950 | 21 | 180 | 3.2 | 9.7 | 0.00 | 0.03 | 0.00 | 36 | 1013.9 |
| 20260504182450 | 21 | 135 | 0.0 | 3.2 | 0.00 | 0.03 | 0.00 | 35 | 1013.8 |
| 20260504181950 | 21 | 225 | 3.2 | 6.4 | 0.00 | 0.03 | 0.00 | 34 | 1013.7 |
| 20260504181450 | 22 | 225 | 3.2 | 6.4 | 0.00 | 0.03 | 0.00 | 33 | 1013.7 |
| 20260504180950 | 22 | 225 | 3.2 | 6.4 | 0.00 | 0.03 | 0.00 | 33 | 1013.7 |
| 20260504180450 | 22 | 225 | 3.2 | 6.4 | 0.00 | 0.03 | 0.00 | 33 | 1013.7 |
| 20260504175950 | 22 | 180 | 1.6 | 8.0 | 0.00 | 0.03 | 0.00 | 33 | 1013.7 |
| 20260504175450 | 22 | 135 | 1.6 | 6.4 | 0.00 | 0.03 | 0.00 | 31 | 1013.7 |
| 20260504174950 | 22 | 225 | 3.2 | 8.0 | 0.00 | 0.03 | 0.00 | 31 | 1013.6 |
| 20260504174450 | 22 | 225 | 3.2 | 9.7 | 0.00 | 0.03 | 0.00 | 31 | 1013.5 |
| 20260504173950 | 22 | 180 | 4.8 | 12.9 | 0.00 | 0.03 | 0.00 | 31 | 1013.5 |
| 20260504173450 | 22 | 180 | 3.2 | 8.0 | 0.00 | 0.03 | 0.00 | 31 | 1013.6 |
| 20260504172950 | 22 | 90 | 3.2 | 11.3 | 0.00 | 0.03 | 0.00 | 31 | 1013.6 |
| 20260504172450 | 23 | 135 | 4.8 | 12.9 | 0.00 | 0.03 | 0.00 | 31 | 1013.5 |
| 20260504171950 | 23 | 225 | 4.8 | 12.9 | 0.00 | 0.03 | 0.00 | 30 | 1013.5 |
| 20260504171450 | 23 | 135 | 3.2 | 9.7 | 0.00 | 0.03 | 0.00 | 30 | 1013.5 |
| 20260504170950 | 23 | 180 | 4.8 | 12.9 | 0.00 | 0.03 | 0.00 | 30 | 1013.3 |
| 20260504170450 | 23 | 158 | 3.2 | 11.3 | 0.00 | 0.03 | 0.00 | 30 | 1013.5 |
| 20260504150950 | 27 | 180 | 1.6 | 6.4 | 0.00 | 0.03 | 0.00 | 21 | 1014.1 |
| 20260504150449 | 27 | 90 | 1.6 | 4.8 | 0.00 | 0.03 | 0.00 | 21 | 1014.1 |
| 20260504140949 | 28 | 158 | 3.2 | 11.3 | 0.00 | 0.03 | 0.00 | 22 | 1014.8 |
| 20260504140450 | 27 | 135 | 4.8 | 12.9 | 0.00 | 0.03 | 0.00 | 21 | 1015.0 |
| 20260504130449 | 27 | 135 | 3.2 | 6.4 | 0.00 | 0.03 | 0.00 | 21 | 1015.7 |
| 20260504110449 | 24 | 135 | 4.8 | 12.9 | 0.00 | 0.03 | 0.00 | 32 | 1017.1 |
| 20260504100449 | 23 | 270 | 3.2 | 6.4 | 0.00 | 0.03 | 0.00 | 31 | 1017.8 |